Regional Weather Roundup
Issued by NWS

Home | Current Version | Previous Version | Graphics & Text | Print | Product List | Glossary On
Versions: 1 2 3 4 5 6 7 8 9 10 11 12 13 14 15 16 17 18 19 20 21 22 23 24 25 26 27 28 29 30 31 32 33 34 35 36 37 38 39 40 41 42 43 44 45 46 47 48 49 50
836
ASUS45 KTFX 270710
RWRMT
MONTANA REGIONAL WEATHER ROUNDUP
NATIONAL WEATHER SERVICE GREAT FALLS MT
1200 AM MST MON FEB 27 2017

NOTE: "FAIR" INDICATES FEW OR NO CLOUDS BELOW 12000 FEET WITH NO
SIGNIFICANT WEATHER AND/OR OBSTRUCTIONS TO VISIBILITY.

MTZ001>007-043-270800-
WEST OF THE DIVIDE

CITY           SKY/WX    TMP DP  RH WIND       PRES   REMARKS
KALISPELL      FLURRIES  19  11  70 N14       29.64R WCI   6
MISSOULA       CLOUDY    29  26  89 E3        29.59S
BUTTE          CLOUDY    21   8  57 SE3       29.51F
MULLAN PASS    LGT SNOW  16  15  96 VRB5      29.46S VSB 3/4
ANACONDA         N/A     21  18  86 SW9       29.54R WCI  11
DEER LODGE       N/A     19  18  93 N8G20     29.56S WCI   9
EUREKA           N/A     16  12  86 CALM      29.68R
HAMILTON         N/A     27  21  80 S12       29.58S WCI  16
LIBBY            N/A     19  18  93 CALM      29.64S
PLAINS           N/A     27  21  77 E2        29.65S
RONAN            N/A     22  19  88 N10       29.67S WCI  11
$$

MTZ008-052>055-270800-
SOUTHWEST MONTANA

CITY           SKY/WX    TMP DP  RH WIND       PRES   REMARKS
BOZEMAN        CLOUDY    24  16  71 SE3       29.56F
DILLON         CLOUDY    19   7  59 W5        29.53S
W YELLOWSTONE  LGT SNOW  16  14  93 SW9       29.54F WCI   4
ENNIS          CLOUDY    25  10  54 S9        29.59F WCI  15
$$

MTZ009-010-012-014-046-048-049-054-270800-
EAST SLOPES AND CENTRAL MONTANA

CITY           SKY/WX    TMP DP  RH WIND       PRES   REMARKS
CUT BANK       CLOUDY    11   8  88 N5        29.69S FOG
GREAT FALLS    LGT SNOW  15  12  88 NE8       29.68S FOG     WCI   4
MALMSTROM AFB  LGT SNOW  15  15  97 NE9       29.70S WCI   3
HELENA         LGT SNOW  16  14  92 W10       29.64S FOG     WCI   4
AUGUSTA        SNOWSHWR  10   8  92 N10       29.64F WCI  -4
BOWMANS CRNR   LGT SNOW   9   7  91 N7        29.63S WCI  -2
CHOTEAU          N/A     12  10  92 N6        29.70S FOG     WCI   3
CONRAD           N/A     13  11  92 NW5       29.75S
POWER          LGT SNOW  14  11  90 NE3       29.67F
$$

MTZ011-013-016-021-045-047-050-051-270800-
NORTH CENTRAL MONTANA

CITY           SKY/WX    TMP DP  RH WIND       PRES   REMARKS
HAVRE          LGT SNOW  16  13  88 NE9       29.78S FOG     WCI   4
LEWISTOWN      LGT SNOW  16  12  84 E7        29.62F FOG     WCI   6
N BAR RANCH    LGT SNOW  14  10  85 CALM      29.63F
CHINOOK          N/A     16  12  86 NE8       29.79F WCI   5
FORT BENTON      N/A     18  16  93 MISG      29.75S
GEYSER         LGT SNOW  14  12  92 NE6       29.63F WCI   5
JUDITH GAP     LGT SNOW  13  10  89 N12       29.58F WCI  -1
$$

MTZ017>020-022>027-061-062-270800-
NORTHEAST MONTANA

CITY           SKY/WX    TMP DP  RH WIND       PRES   REMARKS
GLASGOW        LGT SNOW  19  14  81 NE3       29.77S
JORDAN           N/A     19  16  88 E7        29.72F WCI  10
SIDNEY         CLOUDY    21  17  84 NW3       29.80F
WOLF POINT     CLOUDY    14  10  84 CALM      29.80F
PLENTYWOOD       N/A     14   9  79 N6        29.79S WCI   5
POPLAR           N/A     12   9  85 N3        29.80F
SCOBEY           N/A      6  -3  66 CALM      29.78
$$

MTZ028>42-056>058-270800-
SOUTHCENTRAL AND SOUTHEAST MONTANA

CITY           SKY/WX    TMP DP  RH WIND       PRES   REMARKS
BAKER          CLOUDY    21  17  84 SE9       29.73S WCI  11
BILLINGS       CLOUDY    24  18  77 N9        29.61S WCI  14
LIVINGSTON     CLOUDY    28  12  51 SW17      29.53S WCI  16
MILES CITY     CLOUDY    24  18  77 NE8       29.71F WCI  15
BIG TIMBER     CLOUDY    27  14  59 W8        29.57F WCI  18
EKALAKA          N/A     20  15  81 E13       29.67  WCI   7
FORSYTH          N/A     25  19  80 E9        29.67F WCI  15
LAUREL           N/A     25  17  71 N7        29.62S WCI  17
ROUNDUP          N/A     20  15  81 N8        29.59F WCI  10
$$

REGIONAL REPORTS...DAKOTAS

CITY           SKY/WX    TMP DP  RH WIND       PRES   REMARKS
WILLISTON      CLEAR     11   6  81 NW7       29.81R WCI   0
MINOT          CLOUDY    14  10  84 SW9       29.80S WCI   2
DICKINSON      CLOUDY    14  11  87 S6        29.75F WCI   5
BEACH            N/A    N/A N/A N/A MISG        N/A
CROSBY           N/A      9   9 100 W7        29.83S WCI  -3
TIOGA            N/A      5   5 100 W8        29.79S WCI  -8
WATFORD CITY   CLOUDY    18  16  93 SW6       29.80S WCI   9
BISMARCK       CLOUDY    12   9  87 SE3       29.86R
GRAND FORKS    CLEAR      6  -1  73 S7        29.90S WCI  -6
FARGO          CLOUDY    21  15  78 SE6       29.91S WCI  13
BUFFALO SD       N/A     22  19  89 E6        29.66F WCI  14
RAPID CITY     CLOUDY    26  14  60 S6        29.74F WCI  19
$$

REGIONAL REPORTS...WYOMING/IDAHO/WASHINGTON

CITY           SKY/WX    TMP DP  RH WIND       PRES   REMARKS
GILLETTE       CLOUDY    22  11  62 S10       29.62F WCI  11
SHERIDAN       CLOUDY    23  16  74 S12       29.60F WCI  12
BUFFALO WY     CLOUDY    17   4  56 W5        29.58F
CODY           CLOUDY    20   7  57 SE6       29.58F WCI  12
YELLOWSTONE LA   N/A     10   8  92 CALM      29.53F
IDAHO FALLS    LGT SNOW  24  24 100 SW8       29.63F VSB 3/4 WCI  15
SALMON         CLOUDY    25  16  68 S5        29.60R
BOISE          MOCLDY    31  23  72 SE14      29.65F WCI  21
SPOKANE        FOG       25  24  96 SW3       29.64R VSB 1/2
$$

REGIONAL REPORTS...ALBERTA

CITY           SKY/WX    TMP DP  RH WIND       PRES   REMARKS
EDMONTON       CLEAR      5  -4  66 SW7       29.73F WCI  -7
CALGARY        LGT SNOW   9   3  78 S5        29.69F FOG
LETHBRIDGE     FLURRIES  10   9  92 CALM      29.76F
MEDICINE HAT   CLEAR      5   1  85 E3        29.83F
WATERTON GATE    N/A      7   3  85 N7          N/A  WCI  -5
CARDSTON         N/A      9   5  85 E3          N/A
MILK RIVER       N/A     10   9  92 NE6         N/A  WCI   1
ONEFOUR          N/A      9   5  85 NE7         N/A  WCI  -3
$$

REGIONAL REPORTS...SASKATCHEWAN

CITY           SKY/WX    TMP DP  RH WIND       PRES   REMARKS
SWIFT CURRENT  CLOUDY     1  -2  85 N3        29.75F
REGINA         PTCLDY     3  -2  78 W10       29.81S WCI -12
SASKATOON      CLEAR     -8 -13  77 W7        29.87S WCI -22
CYPRESS HILLS    N/A      0  -6  78 N2          N/A
ROCKGLEN         N/A      3   0  85 N5          N/A
$$




USA.gov is the U.S. government's official web portal to all federal, state and local government web resources and services.